Time,TemperatureF,DewpointF,PressureIn,WindDirection,WindDirectionDegrees,WindSpeedMPH,WindSpeedGustMPH,Humidity,HourlyPrecipIn,Conditions,Clouds,dailyrainin,SoftwareType,DateUTC
2013-03-06 00:00:00,28.5,24.0,29.78,NE,38,8.0,13.0,83,0.00,,,0.00,WUHU216DAVISVP2,2013-03-06 05:00:00,
2013-03-06 00:05:00,28.5,24.0,29.78,NE,49,8.0,12.0,83,0.00,,,0.00,WUHU216DAVISVP2,2013-03-06 05:05:00,
2013-03-06 00:10:00,28.4,23.9,29.78,NNE,23,7.0,13.0,83,0.00,,,0.00,WUHU216DAVISVP2,2013-03-06 05:10:00,
2013-03-06 00:15:00,28.4,23.9,29.79,NE,37,5.0,13.0,83,0.00,,,0.00,WUHU216DAVISVP2,2013-03-06 05:15:00,
2013-03-06 00:20:00,28.4,23.6,29.79,NNE,31,9.0,14.0,82,0.00,,,0.00,WUHU216DAVISVP2,2013-03-06 05:20:00,
2013-03-06 00:26:00,28.4,23.6,29.78,East,82,6.0,14.0,82,0.00,,,0.00,WUHU216DAVISVP2,2013-03-06 05:26:00,
2013-03-06 00:31:00,28.4,23.6,29.79,NNE,31,8.0,14.0,82,0.00,,,0.00,WUHU216DAVISVP2,2013-03-06 05:31:00,
2013-03-06 00:36:00,28.3,23.5,29.78,NE,47,16.0,16.0,82,0.00,,,0.00,WUHU216DAVISVP2,2013-03-06 05:36:00,
2013-03-06 00:41:00,28.3,23.8,29.78,NE,36,7.0,16.0,83,0.00,,,0.00,WUHU216DAVISVP2,2013-03-06 05:41:00,
2013-03-06 00:46:00,28.2,23.7,29.78,NNE,12,10.0,13.0,83,0.00,,,0.00,WUHU216DAVISVP2,2013-03-06 05:46:00,
2013-03-06 00:51:00,28.1,23.6,29.79,NNE,31,10.0,13.0,83,0.00,,,0.00,WUHU216DAVISVP2,2013-03-06 05:51:00,
2013-03-06 00:56:00,28.1,23.6,29.79,NNE,20,11.0,13.0,83,0.00,,,0.00,WUHU216DAVISVP2,2013-03-06 05:56:00,
2013-03-06 01:01:00,28.2,23.7,29.78,NNE,17,9.0,19.0,83,0.00,,,0.00,WUHU216DAVISVP2,2013-03-06 06:01:00,
2013-03-06 01:06:00,28.1,23.6,29.78,NNW,348,7.0,19.0,83,0.00,,,0.00,WUHU216DAVISVP2,2013-03-06 06:06:00,
2013-03-06 01:11:00,28.1,23.6,29.78,North,11,10.0,16.0,83,0.00,,,0.00,WUHU216DAVISVP2,2013-03-06 06:11:00,
2013-03-06 01:17:00,28.1,23.6,29.78,North,11,10.0,16.0,83,0.00,,,0.00,WUHU216DAVISVP2,2013-03-06 06:17:00,
2013-03-06 01:22:00,28.1,23.6,29.79,NE,43,14.0,16.0,83,0.00,,,0.00,WUHU216DAVISVP2,2013-03-06 06:22:00,
2013-03-06 01:27:00,28.1,23.6,29.79,NNE,19,9.0,16.0,83,0.00,,,0.00,WUHU216DAVISVP2,2013-03-06 06:27:00,
2013-03-06 01:32:00,28.0,23.5,29.79,NNE,25,9.0,14.0,83,0.00,,,0.00,WUHU216DAVISVP2,2013-03-06 06:32:00,
2013-03-06 01:37:00,28.0,23.5,29.79,NE,34,11.0,14.0,83,0.00,,,0.00,WUHU216DAVISVP2,2013-03-06 06:37:00,
2013-03-06 01:42:00,27.9,23.4,29.79,NE,46,10.0,13.0,83,0.00,,,0.00,WUHU216DAVISVP2,2013-03-06 06:42:00,
2013-03-06 01:47:00,27.9,23.4,29.79,NNE,30,8.0,12.0,83,0.00,,,0.00,WUHU216DAVISVP2,2013-03-06 06:47:00,
2013-03-06 01:52:00,27.7,23.2,29.80,NNE,26,5.0,12.0,83,0.00,,,0.00,WUHU216DAVISVP2,2013-03-06 06:52:00,
2013-03-06 01:57:00,27.7,23.2,29.80,NNE,17,7.0,13.0,83,0.00,,,0.00,WUHU216DAVISVP2,2013-03-06 06:57:00,
2013-03-06 02:02:00,27.6,23.4,29.80,NE,47,9.0,15.0,84,0.00,,,0.00,WUHU216DAVISVP2,2013-03-06 07:02:00,
2013-03-06 02:03:00,27.7,23.5,29.80,ENE,65,8.0,15.0,84,0.00,,,0.00,WUHU216DAVISVP2,2013-03-06 07:03:00,
2013-03-06 02:08:00,27.6,23.4,29.80,NE,50,7.0,15.0,84,0.00,,,0.00,WUHU216DAVISVP2,2013-03-06 07:08:00,
2013-03-06 02:13:00,27.6,23.4,29.80,NNE,30,9.0,14.0,84,0.00,,,0.00,WUHU216DAVISVP2,2013-03-06 07:13:00,
2013-03-06 02:14:00,27.6,23.4,29.81,NE,35,5.0,14.0,84,0.00,,,0.00,WUHU216DAVISVP2,2013-03-06 07:14:00,
2013-03-06 02:18:00,27.5,23.3,29.81,NNE,32,8.0,14.0,84,0.00,,,0.00,WUHU216DAVISVP2,2013-03-06 07:18:00,
2013-03-06 02:23:00,27.5,23.3,29.81,NNE,28,13.0,14.0,84,0.00,,,0.00,WUHU216DAVISVP2,2013-03-06 07:23:00,
2013-03-06 02:28:00,27.5,23.3,29.81,NE,55,8.0,14.0,84,0.00,,,0.00,WUHU216DAVISVP2,2013-03-06 07:28:00,
2013-03-06 02:33:00,27.5,23.3,29.81,ENE,64,8.0,14.0,84,0.00,,,0.00,WUHU216DAVISVP2,2013-03-06 07:33:00,
2013-03-06 02:38:00,27.4,23.2,29.82,NE,42,8.0,13.0,84,0.00,,,0.00,WUHU216DAVISVP2,2013-03-06 07:38:00,
2013-03-06 02:43:00,27.4,23.2,29.82,NNE,31,4.0,12.0,84,0.00,,,0.00,WUHU216DAVISVP2,2013-03-06 07:43:00,
2013-03-06 02:48:00,27.3,23.1,29.82,ENE,59,9.0,12.0,84,0.00,,,0.00,WUHU216DAVISVP2,2013-03-06 07:48:00,
2013-03-06 02:53:00,27.2,23.3,29.82,NNW,342,6.0,13.0,85,0.00,,,0.00,WUHU216DAVISVP2,2013-03-06 07:53:00,
2013-03-06 02:59:00,27.2,23.3,29.82,NNE,13,6.0,16.0,85,0.00,,,0.00,WUHU216DAVISVP2,2013-03-06 07:59:00,
2013-03-06 03:04:00,27.2,23.3,29.81,NE,37,15.0,16.0,85,0.00,,,0.00,WUHU216DAVISVP2,2013-03-06 08:04:00,
2013-03-06 03:09:00,27.2,23.3,29.81,NNE,22,7.0,15.0,85,0.00,,,0.00,WUHU216DAVISVP2,2013-03-06 08:09:00,
2013-03-06 03:14:00,27.2,23.3,29.81,NNE,21,7.0,14.0,85,0.00,,,0.00,WUHU216DAVISVP2,2013-03-06 08:14:00,
2013-03-06 03:19:00,27.1,23.2,29.82,NNE,28,8.0,15.0,85,0.00,,,0.00,WUHU216DAVISVP2,2013-03-06 08:19:00,
2013-03-06 03:24:00,27.1,23.2,29.82,ENE,75,10.0,15.0,85,0.00,,,0.00,WUHU216DAVISVP2,2013-03-06 08:24:00,
2013-03-06 03:29:00,27.1,23.2,29.82,NE,34,10.0,18.0,85,0.00,,,0.00,WUHU216DAVISVP2,2013-03-06 08:29:00,
2013-03-06 03:34:00,27.1,23.2,29.82,North,11,6.0,18.0,85,0.00,,,0.00,WUHU216DAVISVP2,2013-03-06 08:34:00,
2013-03-06 03:39:00,27.0,23.3,29.82,NNE,12,6.0,16.0,86,0.00,,,0.00,WUHU216DAVISVP2,2013-03-06 08:39:00,
2013-03-06 03:45:00,26.9,23.2,29.82,NE,46,10.0,16.0,86,0.00,,,0.00,WUHU216DAVISVP2,2013-03-06 08:45:00,
2013-03-06 03:50:00,26.9,23.3,29.82,NNE,24,11.0,15.0,86,0.00,,,0.00,WUHU216DAVISVP2,2013-03-06 08:50:00,
2013-03-06 03:55:00,26.9,23.2,29.82,NNE,14,8.0,15.0,86,0.00,,,0.00,WUHU216DAVISVP2,2013-03-06 08:55:00,
2013-03-06 04:00:00,26.9,23.2,29.83,NNE,15,10.0,15.0,86,0.00,,,0.00,WUHU216DAVISVP2,2013-03-06 09:00:00,
2013-03-06 04:05:00,27.0,23.6,29.83,North,349,9.0,16.0,87,0.00,,,0.00,WUHU216DAVISVP2,2013-03-06 09:05:00,
2013-03-06 04:10:00,27.1,23.4,29.84,NNE,32,8.0,16.0,86,0.00,,,0.00,WUHU216DAVISVP2,2013-03-06 09:10:00,
2013-03-06 04:15:00,27.1,23.4,29.84,NNE,26,8.0,15.0,86,0.00,,,0.00,WUHU216DAVISVP2,2013-03-06 09:15:00,
2013-03-06 04:20:00,27.2,23.5,29.84,North,5,4.0,15.0,86,0.00,,,0.00,WUHU216DAVISVP2,2013-03-06 09:20:00,
2013-03-06 04:25:00,27.2,23.5,29.85,North,360,4.0,15.0,86,0.00,,,0.00,WUHU216DAVISVP2,2013-03-06 09:25:00,
2013-03-06 04:30:00,27.2,23.6,29.85,NNE,24,6.0,13.0,86,0.00,,,0.00,WUHU216DAVISVP2,2013-03-06 09:30:00,
2013-03-06 04:35:00,27.2,23.5,29.85,NNE,16,7.0,14.0,86,0.00,,,0.00,WUHU216DAVISVP2,2013-03-06 09:35:00,
2013-03-06 04:41:00,27.2,23.5,29.85,NNE,19,5.0,14.0,86,0.00,,,0.00,WUHU216DAVISVP2,2013-03-06 09:41:00,
2013-03-06 04:46:00,27.2,23.5,29.85,NNE,31,8.0,12.0,86,0.00,,,0.00,WUHU216DAVISVP2,2013-03-06 09:46:00,
2013-03-06 04:51:00,27.3,23.7,29.86,NNE,25,5.0,12.0,86,0.00,,,0.00,WUHU216DAVISVP2,2013-03-06 09:51:00,
2013-03-06 04:56:00,27.4,23.8,29.86,NNE,24,7.0,10.0,86,0.00,,,0.00,WUHU216DAVISVP2,2013-03-06 09:56:00,
2013-03-06 05:01:00,27.4,24.0,29.87,NNE,22,6.0,10.0,87,0.00,,,0.00,WUHU216DAVISVP2,2013-03-06 10:01:00,
2013-03-06 05:06:00,27.4,24.0,29.87,North,355,13.0,13.0,87,0.00,,,0.00,WUHU216DAVISVP2,2013-03-06 10:06:00,
2013-03-06 05:11:00,27.4,24.0,29.88,North,350,6.0,13.0,87,0.00,,,0.00,WUHU216DAVISVP2,2013-03-06 10:11:00,
2013-03-06 05:16:00,27.4,24.0,29.89,North,5,7.0,13.0,87,0.00,,,0.00,WUHU216DAVISVP2,2013-03-06 10:16:00,
2013-03-06 05:21:00,27.4,24.0,29.88,NNE,19,12.0,12.0,87,0.00,,,0.00,WUHU216DAVISVP2,2013-03-06 10:21:00,
2013-03-06 05:26:00,27.3,23.6,29.88,North,355,6.0,12.0,86,0.00,,,0.00,WUHU216DAVISVP2,2013-03-06 10:26:00,
2013-03-06 05:31:00,27.3,23.9,29.89,NNE,13,6.0,12.0,87,0.00,,,0.00,WUHU216DAVISVP2,2013-03-06 10:31:00,
2013-03-06 05:36:00,27.4,23.7,29.89,NNE,33,8.0,11.0,86,0.00,,,0.00,WUHU216DAVISVP2,2013-03-06 10:36:00,
2013-03-06 05:41:00,27.4,24.0,29.90,NNE,26,12.0,12.0,87,0.00,,,0.00,WUHU216DAVISVP2,2013-03-06 10:41:00,
2013-03-06 05:46:00,27.4,24.0,29.90,NNE,18,6.0,12.0,87,0.00,,,0.00,WUHU216DAVISVP2,2013-03-06 10:46:00,
2013-03-06 05:51:00,27.3,23.6,29.90,North,355,6.0,12.0,86,0.00,,,0.00,WUHU216DAVISVP2,2013-03-06 10:51:00,
2013-03-06 05:57:00,27.3,23.6,29.90,North,5,8.0,10.0,86,0.00,,,0.00,WUHU216DAVISVP2,2013-03-06 10:57:00,
2013-03-06 06:02:00,27.3,23.6,29.90,North,5,8.0,10.0,86,0.00,,,0.00,WUHU216DAVISVP2,2013-03-06 11:02:00,
2013-03-06 06:07:00,27.2,23.5,29.91,NNE,26,5.0,9.0,86,0.00,,,0.00,WUHU216DAVISVP2,2013-03-06 11:07:00,
2013-03-06 06:12:00,27.3,23.9,29.91,NNE,20,5.0,10.0,87,0.00,,,0.00,WUHU216DAVISVP2,2013-03-06 11:12:00,
2013-03-06 06:17:00,27.3,23.9,29.91,NNE,20,5.0,10.0,87,0.00,,,0.00,WUHU216DAVISVP2,2013-03-06 11:17:00,
2013-03-06 06:22:00,27.3,23.9,29.92,North,11,8.0,11.0,87,0.00,,,0.00,WUHU216DAVISVP2,2013-03-06 11:22:00,
2013-03-06 06:27:00,27.4,24.0,29.92,NNE,23,4.0,11.0,87,0.00,,,0.00,WUHU216DAVISVP2,2013-03-06 11:27:00,
2013-03-06 06:32:00,27.4,24.0,29.92,North,10,6.0,11.0,87,0.00,,,0.00,WUHU216DAVISVP2,2013-03-06 11:32:00,
2013-03-06 06:37:00,27.4,24.0,29.92,NNE,27,5.0,9.0,87,0.00,,,0.00,WUHU216DAVISVP2,2013-03-06 11:37:00,
2013-03-06 06:43:00,27.5,24.1,29.93,NNE,12,5.0,11.0,87,0.00,,,0.00,WUHU216DAVISVP2,2013-03-06 11:43:00,
2013-03-06 06:48:00,27.5,24.1,29.93,North,10,5.0,11.0,87,0.00,,,0.00,WUHU216DAVISVP2,2013-03-06 11:48:00,
2013-03-06 06:53:00,27.5,24.1,29.94,North,10,7.0,9.0,87,0.00,,,0.00,WUHU216DAVISVP2,2013-03-06 11:53:00,
2013-03-06 06:58:00,27.5,24.1,29.94,North,10,7.0,9.0,87,0.00,,,0.00,WUHU216DAVISVP2,2013-03-06 11:58:00,
2013-03-06 07:03:00,27.5,24.1,29.94,North,5,7.0,9.0,87,0.00,,,0.00,WUHU216DAVISVP2,2013-03-06 12:03:00,
2013-03-06 07:08:00,27.6,24.2,29.94,NNE,12,6.0,11.0,87,0.00,,,0.00,WUHU216DAVISVP2,2013-03-06 12:08:00,
2013-03-06 07:13:00,27.6,23.9,29.95,North,11,3.0,10.0,86,0.00,,,0.00,WUHU216DAVISVP2,2013-03-06 12:13:00,
2013-03-06 07:19:00,27.6,24.2,29.95,North,5,5.0,10.0,87,0.00,,,0.00,WUHU216DAVISVP2,2013-03-06 12:19:00,
2013-03-06 07:24:00,27.6,23.9,29.96,North,360,7.0,9.0,86,0.00,,,0.00,WUHU216DAVISVP2,2013-03-06 12:24:00,
2013-03-06 07:29:00,27.6,23.9,29.96,NNW,339,6.0,9.0,86,0.00,,,0.00,WUHU216DAVISVP2,2013-03-06 12:29:00,
2013-03-06 07:34:00,27.7,24.0,29.96,NNE,26,5.0,10.0,86,0.00,,,0.00,WUHU216DAVISVP2,2013-03-06 12:34:00,
2013-03-06 07:39:00,27.8,24.1,29.96,North,351,4.0,10.0,86,0.00,,,0.00,WUHU216DAVISVP2,2013-03-06 12:39:00,
2013-03-06 07:44:00,27.9,24.2,29.97,NNE,14,6.0,10.0,86,0.00,,,0.00,WUHU216DAVISVP2,2013-03-06 12:44:00,
2013-03-06 07:49:00,28.0,24.3,29.97,NNE,29,6.0,10.0,86,0.00,,,0.00,WUHU216DAVISVP2,2013-03-06 12:49:00,
2013-03-06 07:54:00,28.0,24.3,29.97,North,355,4.0,10.0,86,0.00,,,0.00,WUHU216DAVISVP2,2013-03-06 12:54:00,
2013-03-06 07:59:00,28.1,24.4,29.98,NE,36,5.0,11.0,86,0.00,,,0.00,WUHU216DAVISVP2,2013-03-06 12:59:00,
2013-03-06 08:04:00,28.4,24.7,29.99,North,5,7.0,11.0,86,0.00,,,0.00,WUHU216DAVISVP2,2013-03-06 13:04:00,
2013-03-06 08:10:00,28.7,25.0,29.99,North,360,7.0,9.0,86,0.00,,,0.00,WUHU216DAVISVP2,2013-03-06 13:10:00,
2013-03-06 08:15:00,29.0,25.0,29.99,NE,56,5.0,9.0,85,0.00,,,0.00,WUHU216DAVISVP2,2013-03-06 13:15:00,
2013-03-06 08:20:00,29.1,25.1,29.99,North,9,5.0,9.0,85,0.00,,,0.00,WUHU216DAVISVP2,2013-03-06 13:20:00,
2013-03-06 08:25:00,29.4,25.4,30.00,North,5,6.0,9.0,85,0.00,,,0.00,WUHU216DAVISVP2,2013-03-06 13:25:00,
2013-03-06 08:30:00,29.6,25.3,30.00,North,360,6.0,9.0,84,0.00,,,0.00,WUHU216DAVISVP2,2013-03-06 13:30:00,
2013-03-06 08:35:00,29.8,25.5,30.00,North,10,4.0,9.0,84,0.00,,,0.00,WUHU216DAVISVP2,2013-03-06 13:35:00,
2013-03-06 08:40:00,30.1,25.8,30.00,North,355,5.0,11.0,84,0.00,,,0.00,WUHU216DAVISVP2,2013-03-06 13:40:00,
2013-03-06 08:45:00,30.3,26.0,30.00,NE,53,2.0,12.0,84,0.00,,,0.00,WUHU216DAVISVP2,2013-03-06 13:45:00,
2013-03-06 08:50:00,30.6,26.0,30.00,NE,34,5.0,12.0,83,0.00,,,0.00,WUHU216DAVISVP2,2013-03-06 13:50:00,
2013-03-06 08:55:00,30.8,26.2,30.01,ENE,61,9.0,10.0,83,0.00,,,0.00,WUHU216DAVISVP2,2013-03-06 13:55:00,
2013-03-06 09:00:00,31.0,26.4,30.01,NNE,20,8.0,13.0,83,0.00,,,0.00,WUHU216DAVISVP2,2013-03-06 14:00:00,
2013-03-06 09:05:00,31.4,26.5,30.01,NE,53,7.0,12.0,82,0.00,,,0.00,WUHU216DAVISVP2,2013-03-06 14:05:00,
2013-03-06 09:10:00,31.6,26.7,30.02,NE,39,7.0,10.0,82,0.00,,,0.00,WUHU216DAVISVP2,2013-03-06 14:10:00,
2013-03-06 09:16:00,31.8,26.9,30.02,North,350,12.0,12.0,82,0.00,,,0.00,WUHU216DAVISVP2,2013-03-06 14:16:00,
2013-03-06 09:21:00,31.9,26.7,30.02,NNW,333,7.0,12.0,81,0.00,,,0.00,WUHU216DAVISVP2,2013-03-06 14:21:00,
2013-03-06 09:26:00,31.9,26.7,30.03,NNE,15,8.0,12.0,81,0.00,,,0.00,WUHU216DAVISVP2,2013-03-06 14:26:00,
2013-03-06 09:31:00,32.2,27.0,30.03,NNE,32,8.0,12.0,81,0.00,,,0.00,WUHU216DAVISVP2,2013-03-06 14:31:00,
2013-03-06 09:36:00,32.4,27.2,30.03,NNE,17,5.0,11.0,81,0.00,,,0.00,WUHU216DAVISVP2,2013-03-06 14:36:00,
2013-03-06 09:41:00,32.8,27.6,30.03,NE,49,6.0,12.0,81,0.00,,,0.00,WUHU216DAVISVP2,2013-03-06 14:41:00,
2013-03-06 09:46:00,33.0,27.5,30.03,NE,35,8.0,11.0,80,0.00,,,0.00,WUHU216DAVISVP2,2013-03-06 14:46:00,
2013-03-06 09:51:00,33.2,27.7,30.04,North,360,7.0,11.0,80,0.00,,,0.00,WUHU216DAVISVP2,2013-03-06 14:51:00,
2013-03-06 09:56:00,33.4,27.9,30.04,North,355,6.0,11.0,80,0.00,,,0.00,WUHU216DAVISVP2,2013-03-06 14:56:00,
2013-03-06 10:01:00,33.6,27.8,30.04,NNE,12,6.0,9.0,79,0.00,,,0.00,WUHU216DAVISVP2,2013-03-06 15:01:00,
2013-03-06 10:06:00,33.7,27.9,30.04,ENE,71,6.0,9.0,79,0.00,,,0.00,WUHU216DAVISVP2,2013-03-06 15:06:00,
2013-03-06 10:12:00,33.8,28.0,30.04,NNE,33,4.0,9.0,79,0.00,,,0.00,WUHU216DAVISVP2,2013-03-06 15:12:00,
2013-03-06 10:17:00,33.8,27.7,30.04,ENE,60,5.0,10.0,78,0.00,,,0.00,WUHU216DAVISVP2,2013-03-06 15:17:00,
2013-03-06 10:22:00,33.9,27.8,30.04,NE,35,5.0,10.0,78,0.00,,,0.00,WUHU216DAVISVP2,2013-03-06 15:22:00,
2013-03-06 10:27:00,33.8,27.7,30.05,NE,42,7.0,11.0,78,0.00,,,0.00,WUHU216DAVISVP2,2013-03-06 15:27:00,
2013-03-06 10:32:00,33.9,28.1,30.05,NE,40,9.0,11.0,79,0.00,,,0.00,WUHU216DAVISVP2,2013-03-06 15:32:00,
2013-03-06 10:37:00,34.1,28.0,30.05,NE,38,5.0,10.0,78,0.00,,,0.00,WUHU216DAVISVP2,2013-03-06 15:37:00,
2013-03-06 10:42:00,34.3,28.5,30.05,NNW,342,6.0,9.0,79,0.00,,,0.00,WUHU216DAVISVP2,2013-03-06 15:42:00,
2013-03-06 10:47:00,34.4,28.3,30.05,NNE,31,7.0,9.0,78,0.00,,,0.00,WUHU216DAVISVP2,2013-03-06 15:47:00,
2013-03-06 10:53:00,34.6,28.1,30.05,NNE,21,6.0,10.0,77,0.00,,,0.00,WUHU216DAVISVP2,2013-03-06 15:53:00,
2013-03-06 10:58:00,35.0,28.5,30.05,ENE,59,6.0,10.0,77,0.00,,,0.00,WUHU216DAVISVP2,2013-03-06 15:58:00,
2013-03-06 11:03:00,35.2,28.4,30.05,East,82,5.0,9.0,76,0.00,,,0.00,WUHU216DAVISVP2,2013-03-06 16:03:00,
2013-03-06 11:08:00,35.5,28.7,30.05,ENE,68,5.0,8.0,76,0.00,,,0.00,WUHU216DAVISVP2,2013-03-06 16:08:00,
2013-03-06 11:13:00,35.6,28.5,30.05,East,87,5.0,8.0,75,0.00,,,0.00,WUHU216DAVISVP2,2013-03-06 16:13:00,
2013-03-06 11:18:00,35.7,28.9,30.06,NNE,28,9.0,9.0,76,0.00,,,0.00,WUHU216DAVISVP2,2013-03-06 16:18:00,
2013-03-06 11:23:00,35.6,28.5,30.06,ENE,59,3.0,9.0,75,0.00,,,0.00,WUHU216DAVISVP2,2013-03-06 16:23:00,
2013-03-06 11:28:00,35.8,29.0,30.06,ENE,66,5.0,9.0,76,0.00,,,0.00,WUHU216DAVISVP2,2013-03-06 16:28:00,
2013-03-06 11:33:00,35.9,28.8,30.06,NE,40,5.0,7.0,75,0.00,,,0.00,WUHU216DAVISVP2,2013-03-06 16:33:00,
2013-03-06 11:39:00,35.8,28.7,30.06,North,355,7.0,8.0,75,0.00,,,0.00,WUHU216DAVISVP2,2013-03-06 16:39:00,
2013-03-06 11:44:00,36.1,28.9,30.06,NE,36,2.0,8.0,75,0.00,,,0.00,WUHU216DAVISVP2,2013-03-06 16:44:00,
2013-03-06 11:49:00,36.2,29.1,30.06,NE,48,4.0,7.0,75,0.00,,,0.00,WUHU216DAVISVP2,2013-03-06 16:49:00,
2013-03-06 11:54:00,36.3,29.2,30.06,NE,43,2.0,7.0,75,0.00,,,0.00,WUHU216DAVISVP2,2013-03-06 16:54:00,
2013-03-06 11:59:00,36.5,29.1,30.06,NNE,16,7.0,8.0,74,0.00,,,0.00,WUHU216DAVISVP2,2013-03-06 16:59:00,
2013-03-06 12:04:00,36.3,28.8,30.07,NE,40,4.0,8.0,74,0.00,,,0.00,WUHU216DAVISVP2,2013-03-06 17:04:00,
2013-03-06 12:09:00,36.4,29.3,30.07,ENE,74,2.0,7.0,75,0.00,,,0.00,WUHU216DAVISVP2,2013-03-06 17:09:00,
2013-03-06 12:14:00,37.0,29.2,30.07,ENE,59,0.0,5.0,73,0.00,,,0.00,WUHU216DAVISVP2,2013-03-06 17:14:00,
2013-03-06 12:19:00,37.2,29.4,30.07,North,360,5.0,7.0,73,0.00,,,0.00,WUHU216DAVISVP2,2013-03-06 17:19:00,
2013-03-06 12:25:00,36.8,29.0,30.08,North,360,1.0,7.0,73,0.00,,,0.00,WUHU216DAVISVP2,2013-03-06 17:25:00,
2013-03-06 12:30:00,36.8,29.3,30.08,North,5,4.0,9.0,74,0.00,,,0.00,WUHU216DAVISVP2,2013-03-06 17:30:00,
2013-03-06 12:35:00,36.5,29.1,30.08,NNE,24,4.0,9.0,74,0.00,,,0.00,WUHU216DAVISVP2,2013-03-06 17:35:00,
2013-03-06 12:40:00,36.3,28.9,30.08,NNW,344,5.0,8.0,74,0.00,,,0.00,WUHU216DAVISVP2,2013-03-06 17:40:00,
2013-03-06 12:45:00,36.3,29.2,30.09,North,350,4.0,8.0,75,0.00,,,0.00,WUHU216DAVISVP2,2013-03-06 17:45:00,
2013-03-06 12:50:00,36.4,29.0,30.09,NW,315,4.0,6.0,74,0.00,,,0.00,WUHU216DAVISVP2,2013-03-06 17:50:00,
2013-03-06 12:55:00,36.5,29.1,30.09,NW,317,5.0,6.0,74,0.00,,,0.00,WUHU216DAVISVP2,2013-03-06 17:55:00,
2013-03-06 13:00:00,36.4,29.0,30.09,NW,317,5.0,7.0,74,0.00,,,0.00,WUHU216DAVISVP2,2013-03-06 18:00:00,
2013-03-06 13:06:00,36.2,29.1,30.09,North,5,7.0,8.0,75,0.00,,,0.00,WUHU216DAVISVP2,2013-03-06 18:06:00,
2013-03-06 13:11:00,36.2,29.1,30.09,NNW,332,4.0,8.0,75,0.00,,,0.00,WUHU216DAVISVP2,2013-03-06 18:11:00,
2013-03-06 13:16:00,36.3,28.9,30.09,North,351,5.0,7.0,74,0.00,,,0.00,WUHU216DAVISVP2,2013-03-06 18:16:00,
2013-03-06 13:21:00,36.4,29.0,30.09,NNE,19,3.0,7.0,74,0.00,,,0.00,WUHU216DAVISVP2,2013-03-06 18:21:00,
2013-03-06 13:26:00,36.4,29.0,30.09,North,350,4.0,7.0,74,0.00,,,0.00,WUHU216DAVISVP2,2013-03-06 18:26:00,
2013-03-06 13:31:00,36.4,29.3,30.09,WNW,283,3.0,7.0,75,0.00,,,0.00,WUHU216DAVISVP2,2013-03-06 18:31:00,
2013-03-06 13:36:00,36.3,29.2,30.08,NW,324,2.0,7.0,75,0.00,,,0.00,WUHU216DAVISVP2,2013-03-06 18:36:00,
2013-03-06 13:41:00,36.3,29.2,30.08,NW,304,1.0,7.0,75,0.00,,,0.00,WUHU216DAVISVP2,2013-03-06 18:41:00,
2013-03-06 13:47:00,36.5,29.1,30.09,North,355,6.0,7.0,74,0.00,,,0.00,WUHU216DAVISVP2,2013-03-06 18:47:00,
2013-03-06 13:52:00,36.6,29.1,30.08,NW,326,2.0,7.0,74,0.00,,,0.00,WUHU216DAVISVP2,2013-03-06 18:52:00,
2013-03-06 13:57:00,36.8,29.3,30.08,NNE,12,4.0,7.0,74,0.00,,,0.00,WUHU216DAVISVP2,2013-03-06 18:57:00,
2013-03-06 14:02:00,37.0,29.5,30.09,NW,326,4.0,6.0,74,0.00,,,0.00,WUHU216DAVISVP2,2013-03-06 19:02:00,
2013-03-06 14:07:00,37.0,29.2,30.09,NW,313,3.0,7.0,73,0.00,,,0.00,WUHU216DAVISVP2,2013-03-06 19:07:00,
2013-03-06 14:12:00,37.0,29.2,30.09,North,349,4.0,7.0,73,0.00,,,0.00,WUHU216DAVISVP2,2013-03-06 19:12:00,
2013-03-06 14:18:00,37.1,29.3,30.09,NNE,19,4.0,7.0,73,0.00,,,0.00,WUHU216DAVISVP2,2013-03-06 19:18:00,
2013-03-06 14:23:00,37.0,29.2,30.08,North,5,4.0,7.0,73,0.00,,,0.00,WUHU216DAVISVP2,2013-03-06 19:23:00,
2013-03-06 14:28:00,37.3,29.4,30.08,NNW,347,5.0,7.0,73,0.00,,,0.00,WUHU216DAVISVP2,2013-03-06 19:28:00,
2013-03-06 14:33:00,37.4,29.3,30.08,NNE,15,5.0,7.0,72,0.00,,,0.00,WUHU216DAVISVP2,2013-03-06 19:33:00,
2013-03-06 14:38:00,37.3,29.5,30.08,NNW,330,4.0,9.0,73,0.00,,,0.00,WUHU216DAVISVP2,2013-03-06 19:38:00,
2013-03-06 14:43:00,37.3,29.5,30.08,NNW,330,4.0,9.0,73,0.00,,,0.00,WUHU216DAVISVP2,2013-03-06 19:43:00,
2013-03-06 14:48:00,37.1,29.3,30.08,WNW,290,6.0,10.0,73,0.00,,,0.00,WUHU216DAVISVP2,2013-03-06 19:48:00,
2013-03-06 14:53:00,37.1,29.3,30.08,WNW,288,5.0,10.0,73,0.00,,,0.00,WUHU216DAVISVP2,2013-03-06 19:53:00,
2013-03-06 14:58:00,37.3,29.5,30.08,WNW,296,7.0,8.0,73,0.00,,,0.00,WUHU216DAVISVP2,2013-03-06 19:58:00,
2013-03-06 15:03:00,37.5,29.6,30.09,NW,316,2.0,8.0,73,0.00,,,0.00,WUHU216DAVISVP2,2013-03-06 20:03:00,
2013-03-06 15:08:00,37.5,29.6,30.09,NNW,344,5.0,10.0,73,0.00,,,0.00,WUHU216DAVISVP2,2013-03-06 20:08:00,
2013-03-06 15:14:00,37.4,29.5,30.08,NNW,333,5.0,10.0,73,0.00,,,0.00,WUHU216DAVISVP2,2013-03-06 20:14:00,
2013-03-06 15:19:00,37.4,29.5,30.09,NNW,333,4.0,7.0,73,0.00,,,0.00,WUHU216DAVISVP2,2013-03-06 20:19:00,
2013-03-06 15:24:00,37.5,29.6,30.09,NW,309,4.0,7.0,73,0.00,,,0.00,WUHU216DAVISVP2,2013-03-06 20:24:00,
2013-03-06 15:29:00,37.5,29.7,30.09,NW,319,4.0,7.0,73,0.00,,,0.00,WUHU216DAVISVP2,2013-03-06 20:29:00,
2013-03-06 15:34:00,37.4,29.6,30.09,NNW,337,5.0,7.0,73,0.00,,,0.00,WUHU216DAVISVP2,2013-03-06 20:34:00,
2013-03-06 15:39:00,37.4,29.6,30.09,NW,320,4.0,7.0,73,0.00,,,0.00,WUHU216DAVISVP2,2013-03-06 20:39:00,
2013-03-06 15:44:00,37.3,29.8,30.09,NNW,332,3.0,8.0,74,0.00,,,0.00,WUHU216DAVISVP2,2013-03-06 20:44:00,
2013-03-06 15:49:00,37.1,29.3,30.09,NNW,336,6.0,8.0,73,0.00,,,0.00,WUHU216DAVISVP2,2013-03-06 20:49:00,
2013-03-06 15:54:00,36.9,29.4,30.09,WNW,301,9.0,10.0,74,0.00,,,0.00,WUHU216DAVISVP2,2013-03-06 20:54:00,
2013-03-06 15:59:00,36.8,29.3,30.09,NNW,327,5.0,10.0,74,0.00,,,0.00,WUHU216DAVISVP2,2013-03-06 20:59:00,
2013-03-06 16:05:00,36.8,29.3,30.10,NW,320,4.0,10.0,74,0.00,,,0.00,WUHU216DAVISVP2,2013-03-06 21:05:00,
2013-03-06 16:10:00,36.8,29.3,30.09,NW,314,2.0,10.0,74,0.00,,,0.00,WUHU216DAVISVP2,2013-03-06 21:10:00,
2013-03-06 16:15:00,36.9,29.4,30.10,WNW,290,6.0,10.0,74,0.00,,,0.00,WUHU216DAVISVP2,2013-03-06 21:15:00,
2013-03-06 16:20:00,36.8,29.3,30.10,North,351,5.0,8.0,74,0.00,,,0.00,WUHU216DAVISVP2,2013-03-06 21:20:00,
2013-03-06 16:25:00,36.8,29.3,30.10,WNW,302,5.0,8.0,74,0.00,,,0.00,WUHU216DAVISVP2,2013-03-06 21:25:00,
2013-03-06 16:30:00,36.9,29.8,30.10,NNW,338,4.0,8.0,75,0.00,,,0.00,WUHU216DAVISVP2,2013-03-06 21:30:00,
2013-03-06 16:35:00,37.0,29.5,30.11,NW,309,6.0,7.0,74,0.00,,,0.00,WUHU216DAVISVP2,2013-03-06 21:35:00,
2013-03-06 16:40:00,36.9,29.4,30.11,NNW,339,6.0,7.0,74,0.00,,,0.00,WUHU216DAVISVP2,2013-03-06 21:40:00,
2013-03-06 16:45:00,36.8,29.7,30.11,North,5,3.0,7.0,75,0.00,,,0.00,WUHU216DAVISVP2,2013-03-06 21:45:00,
2013-03-06 16:51:00,36.6,29.5,30.11,NNW,346,3.0,7.0,75,0.00,,,0.00,WUHU216DAVISVP2,2013-03-06 21:51:00,
2013-03-06 16:56:00,36.6,29.4,30.12,NNW,340,2.0,8.0,75,0.00,,,0.00,WUHU216DAVISVP2,2013-03-06 21:56:00,
2013-03-06 17:01:00,36.5,29.4,30.12,NW,315,2.0,8.0,75,0.00,,,0.00,WUHU216DAVISVP2,2013-03-06 22:01:00,
2013-03-06 17:06:00,36.5,29.4,30.12,NW,320,5.0,8.0,75,0.00,,,0.00,WUHU216DAVISVP2,2013-03-06 22:06:00,
2013-03-06 17:11:00,36.4,29.3,30.12,NNE,14,6.0,9.0,75,0.00,,,0.00,WUHU216DAVISVP2,2013-03-06 22:11:00,
2013-03-06 17:16:00,36.2,29.4,30.12,NNW,335,4.0,9.0,76,0.00,,,0.00,WUHU216DAVISVP2,2013-03-06 22:16:00,
2013-03-06 17:21:00,36.2,29.1,30.13,NW,313,5.0,9.0,75,0.00,,,0.00,WUHU216DAVISVP2,2013-03-06 22:21:00,
2013-03-06 17:26:00,36.1,29.3,30.13,NW,323,1.0,9.0,76,0.00,,,0.00,WUHU216DAVISVP2,2013-03-06 22:26:00,
2013-03-06 17:31:00,36.0,29.2,30.13,NNW,333,5.0,10.0,76,0.00,,,0.00,WUHU216DAVISVP2,2013-03-06 22:31:00,
2013-03-06 17:36:00,35.9,29.1,30.13,NW,315,6.0,10.0,76,0.00,,,0.00,WUHU216DAVISVP2,2013-03-06 22:36:00,
2013-03-06 17:41:00,35.8,29.0,30.14,NNW,340,4.0,9.0,76,0.00,,,0.00,WUHU216DAVISVP2,2013-03-06 22:41:00,
2013-03-06 17:46:00,35.7,28.9,30.14,NNW,338,4.0,8.0,76,0.00,,,0.00,WUHU216DAVISVP2,2013-03-06 22:46:00,
2013-03-06 17:52:00,35.7,28.9,30.13,NW,321,5.0,8.0,76,0.00,,,0.00,WUHU216DAVISVP2,2013-03-06 22:52:00,
2013-03-06 17:57:00,35.7,28.9,30.14,NW,317,4.0,8.0,76,0.00,,,0.00,WUHU216DAVISVP2,2013-03-06 22:57:00,
2013-03-06 18:02:00,35.6,28.8,30.14,NW,325,5.0,8.0,76,0.00,,,0.00,WUHU216DAVISVP2,2013-03-06 23:02:00,
2013-03-06 18:07:00,35.5,29.0,30.14,NNW,338,4.0,7.0,77,0.00,,,0.00,WUHU216DAVISVP2,2013-03-06 23:07:00,
2013-03-06 18:12:00,35.5,29.0,30.14,NW,308,4.0,7.0,77,0.00,,,0.00,WUHU216DAVISVP2,2013-03-06 23:12:00,
2013-03-06 18:17:00,35.4,28.9,30.14,NNW,327,2.0,7.0,77,0.00,,,0.00,WUHU216DAVISVP2,2013-03-06 23:17:00,
2013-03-06 18:22:00,35.3,28.8,30.14,NNW,328,5.0,7.0,77,0.00,,,0.00,WUHU216DAVISVP2,2013-03-06 23:22:00,
2013-03-06 18:27:00,35.3,28.8,30.14,North,355,5.0,6.0,77,0.00,,,0.00,WUHU216DAVISVP2,2013-03-06 23:27:00,
2013-03-06 18:32:00,35.3,28.8,30.14,NNW,342,5.0,7.0,77,0.00,,,0.00,WUHU216DAVISVP2,2013-03-06 23:32:00,
2013-03-06 18:37:00,35.2,28.7,30.14,NNW,342,2.0,7.0,77,0.00,,,0.00,WUHU216DAVISVP2,2013-03-06 23:37:00,
2013-03-06 18:43:00,35.2,29.0,30.14,NW,324,1.0,7.0,78,0.00,,,0.00,WUHU216DAVISVP2,2013-03-06 23:43:00,
2013-03-06 18:48:00,35.1,29.0,30.14,NNW,345,1.0,6.0,78,0.00,,,0.00,WUHU216DAVISVP2,2013-03-06 23:48:00,
2013-03-06 18:53:00,35.0,28.9,30.14,NNW,345,2.0,6.0,78,0.00,,,0.00,WUHU216DAVISVP2,2013-03-06 23:53:00,
2013-03-06 18:58:00,35.0,28.8,30.15,NW,321,2.0,5.0,78,0.00,,,0.00,WUHU216DAVISVP2,2013-03-06 23:58:00,
2013-03-06 19:03:00,34.9,29.0,30.15,NW,324,4.0,5.0,79,0.00,,,0.00,WUHU216DAVISVP2,2013-03-07 00:03:00,
2013-03-06 19:08:00,34.8,29.0,30.15,NW,323,1.0,5.0,79,0.00,,,0.00,WUHU216DAVISVP2,2013-03-07 00:08:00,
2013-03-06 19:13:00,34.7,28.9,30.15,NNW,340,1.0,6.0,79,0.00,,,0.00,WUHU216DAVISVP2,2013-03-07 00:13:00,
2013-03-06 19:18:00,34.5,28.7,30.14,NW,323,5.0,6.0,79,0.00,,,0.00,WUHU216DAVISVP2,2013-03-07 00:18:00,
2013-03-06 19:23:00,34.4,28.6,30.15,NW,317,2.0,7.0,79,0.00,,,0.00,WUHU216DAVISVP2,2013-03-07 00:23:00,
2013-03-06 19:28:00,34.3,28.5,30.15,NW,314,4.0,7.0,79,0.00,,,0.00,WUHU216DAVISVP2,2013-03-07 00:28:00,
2013-03-06 19:33:00,34.2,28.7,30.15,NW,312,2.0,4.0,80,0.00,,,0.00,WUHU216DAVISVP2,2013-03-07 00:33:00,
2013-03-06 19:38:00,34.2,28.7,30.15,NW,308,5.0,5.0,80,0.00,,,0.00,WUHU216DAVISVP2,2013-03-07 00:38:00,
2013-03-06 19:44:00,34.2,28.7,30.15,NW,308,5.0,5.0,80,0.00,,,0.00,WUHU216DAVISVP2,2013-03-07 00:44:00,
2013-03-06 19:49:00,34.2,28.7,30.16,WNW,300,1.0,6.0,80,0.00,,,0.00,WUHU216DAVISVP2,2013-03-07 00:49:00,
2013-03-06 19:54:00,34.1,28.6,30.15,WNW,300,2.0,5.0,80,0.00,,,0.00,WUHU216DAVISVP2,2013-03-07 00:54:00,
2013-03-06 19:59:00,34.1,28.6,30.16,WNW,300,2.0,5.0,80,0.00,,,0.00,WUHU216DAVISVP2,2013-03-07 00:59:00,
2013-03-06 20:04:00,34.1,28.6,30.16,WNW,300,1.0,4.0,80,0.00,,,0.00,WUHU216DAVISVP2,2013-03-07 01:04:00,
2013-03-06 20:09:00,34.1,28.9,30.16,NW,317,7.0,7.0,81,0.00,,,0.00,WUHU216DAVISVP2,2013-03-07 01:09:00,
2013-03-06 20:14:00,34.1,28.9,30.17,NW,318,1.0,7.0,81,0.00,,,0.00,WUHU216DAVISVP2,2013-03-07 01:14:00,
2013-03-06 20:19:00,34.1,28.9,30.16,NW,315,2.0,5.0,81,0.00,,,0.00,WUHU216DAVISVP2,2013-03-07 01:19:00,
2013-03-06 20:25:00,34.0,28.8,30.16,NNW,336,3.0,5.0,81,0.00,,,0.00,WUHU216DAVISVP2,2013-03-07 01:25:00,
2013-03-06 20:30:00,34.0,28.8,30.16,NW,309,3.0,6.0,81,0.00,,,0.00,WUHU216DAVISVP2,2013-03-07 01:30:00,
2013-03-06 20:33:00,34.0,28.8,30.16,NW,311,2.0,6.0,81,0.00,,,0.00,WUHU216DAVISVP2,2013-03-07 01:33:00,
2013-03-06 20:35:00,34.0,28.8,30.16,NW,311,2.0,6.0,81,0.00,,,0.00,WUHU216DAVISVP2,2013-03-07 01:35:00,
2013-03-06 20:40:00,33.9,28.7,30.16,NW,321,4.0,5.0,81,0.00,,,0.00,WUHU216DAVISVP2,2013-03-07 01:40:00,
2013-03-06 20:45:00,33.9,28.7,30.17,WNW,302,4.0,6.0,81,0.00,,,0.00,WUHU216DAVISVP2,2013-03-07 01:45:00,
2013-03-06 20:50:00,33.9,28.7,30.16,WNW,302,1.0,6.0,81,0.00,,,0.00,WUHU216DAVISVP2,2013-03-07 01:50:00,
2013-03-06 20:55:00,33.9,28.7,30.17,WNW,302,1.0,4.0,81,0.00,,,0.00,WUHU216DAVISVP2,2013-03-07 01:55:00,
2013-03-06 21:00:00,33.9,28.7,30.17,WNW,303,4.0,4.0,81,0.00,,,0.00,WUHU216DAVISVP2,2013-03-07 02:00:00,
2013-03-06 21:05:00,33.9,29.0,30.17,NW,321,2.0,5.0,82,0.00,,,0.00,WUHU216DAVISVP2,2013-03-07 02:05:00,
2013-03-06 21:10:00,33.8,28.9,30.17,NW,318,1.0,4.0,82,0.00,,,0.00,WUHU216DAVISVP2,2013-03-07 02:10:00,
2013-03-06 21:16:00,33.8,28.9,30.17,NW,319,5.0,5.0,82,0.00,,,0.00,WUHU216DAVISVP2,2013-03-07 02:16:00,
2013-03-06 21:21:00,33.7,28.8,30.17,NW,319,0.0,5.0,82,0.00,,,0.00,WUHU216DAVISVP2,2013-03-07 02:21:00,
2013-03-06 21:26:00,33.7,28.8,30.17,NW,319,1.0,5.0,82,0.00,,,0.00,WUHU216DAVISVP2,2013-03-07 02:26:00,
2013-03-06 21:31:00,33.7,28.8,30.17,NW,319,1.0,3.0,82,0.00,,,0.00,WUHU216DAVISVP2,2013-03-07 02:31:00,
2013-03-06 21:36:00,33.7,28.8,30.17,NW,319,2.0,4.0,82,0.00,,,0.00,WUHU216DAVISVP2,2013-03-07 02:36:00,
2013-03-06 21:41:00,33.7,28.8,30.18,NW,319,2.0,4.0,82,0.00,,,0.00,WUHU216DAVISVP2,2013-03-07 02:41:00,
2013-03-06 21:46:00,33.7,28.8,30.18,NW,319,2.0,4.0,82,0.00,,,0.00,WUHU216DAVISVP2,2013-03-07 02:46:00,
2013-03-06 21:51:00,33.7,28.8,30.17,NW,319,0.0,4.0,82,0.00,,,0.00,WUHU216DAVISVP2,2013-03-07 02:51:00,
2013-03-06 21:56:00,33.6,28.7,30.17,NW,319,2.0,4.0,82,0.00,,,0.00,WUHU216DAVISVP2,2013-03-07 02:56:00,
2013-03-06 22:02:00,33.6,28.7,30.17,NW,319,1.0,4.0,82,0.00,,,0.00,WUHU216DAVISVP2,2013-03-07 03:02:00,
2013-03-06 22:07:00,33.6,28.7,30.17,NW,316,0.0,4.0,82,0.00,,,0.00,WUHU216DAVISVP2,2013-03-07 03:07:00,
2013-03-06 22:12:00,33.6,28.7,30.17,NW,316,0.0,5.0,82,0.00,,,0.00,WUHU216DAVISVP2,2013-03-07 03:12:00,
2013-03-06 22:17:00,33.5,28.6,30.17,NW,316,1.0,5.0,82,0.00,,,0.00,WUHU216DAVISVP2,2013-03-07 03:17:00,
2013-03-06 22:22:00,33.5,28.6,30.17,NW,315,2.0,4.0,82,0.00,,,0.00,WUHU216DAVISVP2,2013-03-07 03:22:00,
2013-03-06 22:27:00,33.5,28.6,30.17,NW,315,2.0,4.0,82,0.00,,,0.00,WUHU216DAVISVP2,2013-03-07 03:27:00,
2013-03-06 22:32:00,33.4,28.5,30.18,NW,315,1.0,4.0,82,0.00,,,0.00,WUHU216DAVISVP2,2013-03-07 03:32:00,
2013-03-06 22:37:00,33.4,28.5,30.18,NW,315,1.0,4.0,82,0.00,,,0.00,WUHU216DAVISVP2,2013-03-07 03:37:00,
2013-03-06 22:42:00,33.4,28.5,30.18,NW,315,4.0,4.0,82,0.00,,,0.00,WUHU216DAVISVP2,2013-03-07 03:42:00,
2013-03-06 22:47:00,33.3,28.7,30.18,NW,315,2.0,4.0,83,0.00,,,0.00,WUHU216DAVISVP2,2013-03-07 03:47:00,
2013-03-06 22:53:00,33.3,28.7,30.18,NW,313,1.0,5.0,83,0.00,,,0.00,WUHU216DAVISVP2,2013-03-07 03:53:00,
2013-03-06 22:58:00,33.3,28.7,30.18,NW,313,2.0,5.0,83,0.00,,,0.00,WUHU216DAVISVP2,2013-03-07 03:58:00,
2013-03-06 23:03:00,33.3,28.7,30.18,NW,313,1.0,4.0,83,0.00,,,0.00,WUHU216DAVISVP2,2013-03-07 04:03:00,
2013-03-06 23:08:00,33.2,28.6,30.18,NW,313,1.0,4.0,83,0.00,,,0.00,WUHU216DAVISVP2,2013-03-07 04:08:00,
2013-03-06 23:13:00,33.2,28.6,30.18,NW,313,2.0,4.0,83,0.00,,,0.00,WUHU216DAVISVP2,2013-03-07 04:13:00,
2013-03-06 23:18:00,33.2,28.6,30.18,NW,313,1.0,4.0,83,0.00,,,0.00,WUHU216DAVISVP2,2013-03-07 04:18:00,
2013-03-06 23:24:00,33.1,28.5,30.18,WNW,300,2.0,4.0,83,0.00,,,0.00,WUHU216DAVISVP2,2013-03-07 04:24:00,
2013-03-06 23:29:00,33.1,28.5,30.18,WNW,300,2.0,4.0,83,0.00,,,0.00,WUHU216DAVISVP2,2013-03-07 04:29:00,
2013-03-06 23:34:00,33.1,28.5,30.18,WNW,300,1.0,4.0,83,0.00,,,0.00,WUHU216DAVISVP2,2013-03-07 04:34:00,
2013-03-06 23:39:00,33.0,28.7,30.18,WNW,300,0.0,4.0,84,0.00,,,0.00,WUHU216DAVISVP2,2013-03-07 04:39:00,
2013-03-06 23:44:00,33.0,28.4,30.17,WNW,299,2.0,4.0,83,0.00,,,0.00,WUHU216DAVISVP2,2013-03-07 04:44:00,
2013-03-06 23:49:00,33.1,28.5,30.17,WNW,300,1.0,4.0,83,0.00,,,0.00,WUHU216DAVISVP2,2013-03-07 04:49:00,
2013-03-06 23:54:00,33.1,28.5,30.17,WNW,296,1.0,4.0,83,0.00,,,0.00,WUHU216DAVISVP2,2013-03-07 04:54:00,